N4WNX-4 Weather Reports


Display with metric or nautical units.
time (UTC)temp
F
wind
direction
speed
MPH
gust
MPH
rain 1hr
in
rain 24hr
in
rain mn
in
humidity
%
barometer
mb
20260506103022 63 162 2.0 4.0 0.00 0.00 0.00 79 1016.6
20260506102122 63 166 1.0 3.0 0.00 0.00 0.00 79 1016.4
20260506101222 63 181 1.0 2.0 0.00 0.00 0.00 79 1016.3
20260506100322 63 149 2.0 6.0 0.00 0.00 0.00 78 1016.4
20260506095422 63 171 2.0 7.0 0.00 0.00 0.00 78 1016.2
20260506094729 63 173 2.0 7.0 0.00 0.00 0.00 78 1016.1
20260506093622 63 157 3.0 5.0 0.00 0.00 0.00 78 1016.3
20260506092722 63 163 2.0 6.0 0.00 0.00 0.00 78 1016.3
20260506091823 63 158 2.0 6.0 0.00 0.00 0.00 78 1016.5
20260506091129 63 162 2.0 6.0 0.00 0.00 0.00 78 1016.6
20260506090022 64 155 2.0 6.0 0.00 0.00 0.00 78 1016.8
20260506085122 64 156 2.0 6.0 0.00 0.00 0.00 77 1016.8
20260506084223 64 171 2.0 6.0 0.00 0.00 0.00 77 1017.1
20260506083322 64 155 1.0 4.0 0.00 0.00 0.00 77 1017.1
20260506082422 64 170 2.0 4.0 0.00 0.00 0.00 77 1016.8
20260506081522 64 164 2.0 4.0 0.00 0.00 0.00 77 1016.8
20260506080622 64 166 1.0 5.0 0.00 0.00 0.00 77 1016.9
20260506073022 64 157 2.0 5.0 0.00 0.00 0.00 76 1016.6
20260506072122 64 152 2.0 5.0 0.00 0.00 0.00 76 1016.6
20260506071222 64 166 2.0 8.0 0.00 0.00 0.00 76 1016.6
20260506070322 64 170 2.0 6.0 0.00 0.00 0.00 76 1016.5
20260506061822 66 171 3.0 9.0 0.00 0.00 0.00 74 1016.4
20260506060922 66 161 3.0 9.0 0.00 0.00 0.00 74 1016.6
20260506050829 67 170 3.0 6.0 0.00 0.00 0.00 71 1017.3
20260506045029 67 175 3.0 9.0 0.00 0.00 0.00 70 1017.4
20260506043922 68 166 3.0 9.0 0.00 0.00 0.00 70 1017.5
20260506043022 68 170 3.0 9.0 0.00 0.00 0.00 70 1017.3
20260506042122 68 166 3.0 8.0 0.00 0.00 0.00 69 1017.4
20260506041223 68 168 2.0 8.0 0.00 0.00 0.00 69 1017.5
20260506040322 68 168 3.0 8.0 0.00 0.00 0.00 68 1017.4
20260506035422 69 167 3.0 7.0 0.00 0.00 0.00 67 1017.4
20260506034522 69 165 3.0 9.0 0.00 0.00 0.00 67 1017.4
20260506033829 69 171 3.0 7.0 0.00 0.00 0.00 67 1017.6
20260506032722 68 167 3.0 9.0 0.00 0.00 0.00 67 1017.5
20260506031822 66 134 2.0 6.0 0.00 0.00 0.00 68 1017.3
20260506030923 66 69 1.0 3.0 0.00 0.00 0.00 73 1017.2
20260506030022 65 0 0.0 0.0 0.00 0.00 0.00 70 1016.9
20260506025122 66 0 0.0 0.0 0.00 0.00 0.00 70 1016.9
20260506024222 66 0 0.0 0.0 0.00 0.00 0.00 69 1016.8
20260506023322 66 0 0.0 0.0 0.00 0.00 0.00 69 1016.6
20260506022422 67 0 0.0 0.0 0.00 0.00 0.00 69 1016.5
20260506021522 67 0 0.0 0.0 0.00 0.00 0.00 67 1016.7
20260506020622 67 62 0.0 1.0 0.00 0.00 0.00 66 1016.8
20260506015722 68 0 0.0 0.0 0.00 0.00 0.00 65 1016.6
20260506015029 68 0 0.0 0.0 0.00 0.00 0.00 64 1016.5
20260506013922 68 63 0.0 1.0 0.00 0.00 0.00 63 1016.6
20260506013022 69 63 0.0 1.0 0.00 0.00 0.00 62 1016.7
20260506012122 69 0 0.0 0.0 0.00 0.00 0.00 62 1016.7
20260506011429 70 42 0.0 1.0 0.00 0.00 0.00 61 1016.5
20260506010322 71 0 0.0 0.0 0.00 0.00 0.00 58 1016.4
20260506005423 72 0 0.0 0.0 0.00 0.00 0.00 58 1016.5
20260506004730 72 63 0.0 1.0 0.00 0.00 0.00 56 1016.4
20260506003622 74 62 0.0 1.0 0.00 0.00 0.00 54 1016.3
20260506002722 75 59 0.0 1.0 0.00 0.00 0.00 52 1015.9
20260506002029 75 0 0.0 0.0 0.00 0.00 0.00 51 1015.9
20260506000922 77 165 0.0 1.0 0.00 0.00 0.00 49 1015.8
20260506000229 78 158 0.0 1.0 0.00 0.00 0.00 47 1015.7
20260505235122 79 132 1.0 2.0 0.00 0.00 0.00 45 1015.7
20260505234222 80 104 1.0 3.0 0.00 0.00 0.00 43 1015.6
20260505233322 81 333 1.0 4.0 0.00 0.00 0.00 42 1015.4
20260505232422 81 110 3.0 8.0 0.00 0.00 0.00 41 1015.4
20260505231522 81 117 2.0 8.0 0.00 0.00 0.00 41 1015.4
20260505230830 81 122 2.0 9.0 0.00 0.00 0.00 40 1015.4
20260505225722 82 132 3.0 9.0 0.00 0.00 0.00 40 1015.3
20260505225029 82 127 3.0 9.0 0.00 0.00 0.00 39 1015.6
20260505223922 82 137 2.0 7.0 0.00 0.00 0.00 40 1015.6
20260505223022 82 146 3.0 10.0 0.00 0.00 0.00 41 1015.7
20260505222122 82 143 3.0 10.0 0.00 0.00 0.00 42 1015.8
20260505221222 82 142 3.0 8.0 0.00 0.00 0.00 41 1015.9
20260505220322 82 259 3.0 13.0 0.00 0.00 0.00 41 1015.9
20260505215422 82 125 2.0 7.0 0.00 0.00 0.00 42 1015.8
20260505214522 82 131 1.0 6.0 0.00 0.00 0.00 44 1016.0
20260505213622 82 159 2.0 6.0 0.00 0.00 0.00 42 1016.0
20260505212722 83 157 2.0 9.0 0.00 0.00 0.00 41 1016.0
20260505211822 82 138 4.0 11.0 0.00 0.00 0.00 40 1016.0
20260505210922 82 125 2.0 8.0 0.00 0.00 0.00 42 1015.9
20260505210022 82 107 4.0 13.0 0.00 0.00 0.00 41 1016.1
20260505205122 81 134 3.0 13.0 0.00 0.00 0.00 43 1016.1
20260505204222 81 148 3.0 8.0 0.00 0.00 0.00 43 1016.1
20260505203322 80 135 2.0 7.0 0.00 0.00 0.00 45 1016.1
20260505202422 81 139 3.0 9.0 0.00 0.00 0.00 43 1016.2
20260505201729 82 107 3.0 8.0 0.00 0.00 0.00 42 1016.2
20260505200622 82 107 3.0 10.0 0.00 0.00 0.00 45 1016.4
20260505195722 81 125 3.0 7.0 0.00 0.00 0.00 44 1016.6
20260505194822 82 124 2.0 8.0 0.00 0.00 0.00 44 1016.8
20260505194129 81 154 4.0 10.0 0.00 0.00 0.00 47 1017.0
20260505193022 81 155 3.0 11.0 0.00 0.00 0.00 49 1017.2
20260505192122 80 155 3.0 10.0 0.00 0.00 0.00 49 1017.4
20260505191222 80 154 4.0 11.0 0.00 0.00 0.00 45 1017.5
20260505190322 81 149 3.0 8.0 0.00 0.00 0.00 44 1017.7
20260505185422 81 175 2.0 7.0 0.00 0.00 0.00 43 1017.9
20260505184522 80 178 3.0 8.0 0.00 0.00 0.00 43 1017.9
20260505183622 80 160 2.0 8.0 0.00 0.00 0.00 48 1018.2
20260505182722 80 289 3.0 11.0 0.00 0.00 0.00 45 1018.2
20260505181822 80 197 3.0 9.0 0.00 0.00 0.00 45 1018.3
20260505180922 80 141 3.0 11.0 0.00 0.00 0.00 45 1018.4
20260505180022 80 127 3.0 10.0 0.00 0.00 0.00 45 1018.2
20260505175122 79 126 3.0 9.0 0.00 0.00 0.00 49 1018.4
20260505174222 80 111 2.0 8.0 0.00 0.00 0.00 47 1018.5
20260505173322 79 138 3.0 10.0 0.00 0.00 0.00 45 1018.5
20260505172422 78 150 2.0 7.0 0.00 0.00 0.00 52 1018.5
20260505171522 78 169 3.0 10.0 0.00 0.00 0.00 49 1018.6
20260505170622 79 142 4.0 12.0 0.00 0.00 0.00 48 1018.6
20260505165929 79 127 3.0 10.0 0.00 0.00 0.00 51 1018.7
20260505165030 78 148 4.0 11.0 0.00 0.00 0.00 51 1018.9
20260505163922 78 159 3.0 9.0 0.00 0.00 0.00 53 1018.9
20260505163229 77 154 4.0 11.0 0.00 0.00 0.00 54 1018.9
20260505162122 77 176 4.0 9.0 0.00 0.00 0.00 56 1019.0
20260505161222 77 164 4.0 9.0 0.00 0.00 0.00 57 1019.2
20260505160322 76 150 4.0 14.0 0.00 0.00 0.00 56 1019.2
20260505152722 74 153 4.0 9.0 0.00 0.00 0.00 60 1019.3
20260505151822 74 146 3.0 9.0 0.00 0.00 0.00 60 1019.3
20260505151129 74 175 3.0 10.0 0.00 0.00 0.00 63 1019.4
20260505124729 65 154 3.0 10.0 0.00 0.00 0.00 75 1019.0
20260505123830 64 149 3.0 8.0 0.00 0.00 0.00 77 1019.0
20260505122722 62 147 2.0 8.0 0.00 0.00 0.00 80 1018.9
20260505121822 60 162 1.0 5.0 0.00 0.00 0.00 82 1018.8
20260505120922 59 147 1.0 4.0 0.00 0.00 0.00 84 1018.6
20260505120022 58 153 1.0 5.0 0.00 0.00 0.00 86 1018.7
20260505115122 57 144 1.0 3.0 0.00 0.00 0.00 87 1018.6
20260505114222 56 147 1.0 2.0 0.00 0.00 0.00 88 1018.5
20260505113322 56 148 0.0 2.0 0.00 0.00 0.00 89 1018.5
20260505112422 55 298 0.0 1.0 0.00 0.00 0.00 88 1018.4
20260505111522 55 279 0.0 1.0 0.00 0.00 0.00 88 1018.3
20260505110622 55 0 0.0 0.0 0.00 0.00 0.00 87 1018.3